{"data":{"norad_id":45454,"intl_designator":"2020-020AG","name":"ONEWEB-0034","alt_names":[],"object_type":"PAYLOAD","status":"ACTIVE","operator":null,"country":"UK","launch_date":"2020-03-21","launch_site_code":"TYMSC","launch_vehicle":null,"mission":null,"orbit_class":"UNKNOWN","rcs_meters":null,"size_class":null,"mass_kg":null,"dimensions":null,"purposes":["comms"],"wikipedia_slug":null,"has_3d_model":false,"image_url":null,"decayed_at":null,"tle_current":{"epoch":"2026-05-25T02:16:25.054752Z","epoch_age_seconds":73846,"freshness":"FRESH","line1":"1 45454U 20020AG  26145.09473443 -.00000141  00000+0 -43602-3 0  9993","line2":"2 45454  87.8918  25.6592 0001788  80.4533 279.6797 13.10936467299569","mean_motion":13.10936467,"eccentricity":0.0001788,"inclination_deg":87.8918,"raan_deg":25.6592,"arg_perigee_deg":80.4533,"mean_anomaly_deg":279.6797,"bstar":-0.00043602,"rev_number":29956,"period_min":109.84514019168,"perigee_km":1218.1801089962,"apogee_km":1220.8970377812,"semimajor_km":7597.6755733887,"source":"CELESTRAK","updated_at":"2026-05-25T13:38:22.347466Z"}}}